sat.trackr.live / text

‹ back to catalog

STARLINK-6072

NORAD 56806 · 2023-078AR

PAYLOAD ACTIVE UNKNOWN

§ Identity

Operator
Country
US
Launch date
2023-05-31
Launch site
AFWTR
Launch vehicle
Mass (kg)
RCS (m²)

Purposes: comms

External: N2YO · Heavens-Above · Gunter

§ Orbital elements

Epoch: 2026-09-20T10:49:10.190496Z

Period
96.11 min
Inclination
70.0004°
Eccentricity
0.0002356
Mean motion
14.98330694 rev/d
Perigee alt
570.4 km
Apogee alt
573.7 km
Semi-major
6,950.2 km
B*
3.2166e-6
RAAN
173.2391°
Arg perigee
275.9753°
Mean anomaly
84.1138°
Rev number
18,281

§ Raw data

STARLINK-60721 56806U 23078AR  26263.45081239 -.00000055  00000+0  32166-5 0  99992 56806  70.0004 173.2391 0002356 275.9753  84.1138 14.98330694182810

JSON: /api/v1/satellites/56806 · /tle

For live sub-satellite position, see the globe view (requires WebGL).

§ Visibility from observer

Set your observer location to see the next 7 days of passes ≥ 10°. The values pass through the URL so the page stays shareable.

No JS? Fill the form by hand. The geolocation button needs JavaScript.